Location: Harwich
(41.7160°N, 69.9939°W)
Time: 02:53:33
(UTC+02:00)

AO-73 - Pass Details

Date: 19 September 2024
Orbit: 548 x 615 km, 97.7° (Epoch: 10 October)

Event Time Altitude Azimuth Distance (km) Brightness Sun altitude
Rises 09:44:40 0° 13° (NNE) 2,790 ? -29.2°
Reaches altitude 10° 09:46:51 10° 15° (NNE) 1,876 ? -28.8°
Enters shadow 09:49:07 32° 19° (NNE) 982 ? -28.5°
